KJ6HT Weather Reports


Display with metric or nautical units.
time (UTC)temp
F
wind
direction
speed
MPH
gust
MPH
rain 1hr
in
rain 24hr
in
rain mn
in
humidity
%
barometer
mb
20260502184508 70 41 2.0 7.0 0.00 0.00 0.00 71 1012.5
20260502183003 69 293 3.0 9.0 0.00 0.00 0.00 72 1012.8
20260502181614 69 194 3.0 6.0 0.00 0.00 0.00 74 1012.9
20260502170129 63 280 0.0 3.0 0.00 0.00 0.00 85 1013.5
20260502163125 60 355 1.0 2.0 0.00 0.00 0.00 89 1013.6
20260502161549 60 226 1.0 2.0 0.00 0.00 0.00 90 1013.7
20260502160133 59 96 0.0 4.0 0.00 0.00 0.00 92 1013.7
20260502151603 58 229 0.0 1.0 0.00 0.00 0.00 93 1014.0
20260502123127 56 261 0.0 2.0 0.00 0.00 0.00 93 1012.5
20260502121543 56 251 0.0 0.0 0.00 0.00 0.00 93 1012.3
20260502120125 55 252 0.0 0.0 0.00 0.00 0.00 92 1012.1
20260502114549 56 252 0.0 0.0 0.00 0.00 0.00 92 1012.0
20260502113023 56 252 0.0 0.0 0.00 0.00 0.00 92 1012.0
20260502111616 56 252 0.0 0.0 0.00 0.00 0.00 92 1012.0
20260502110044 57 251 0.0 0.0 0.00 0.00 0.00 92 1011.9
20260502104626 57 251 0.0 0.0 0.00 0.00 0.00 92 1011.9
20260502103042 57 252 0.0 0.0 0.00 0.00 0.00 92 1011.8
20260502101631 57 250 0.0 0.0 0.00 0.00 0.00 92 1011.9
20260502091510 57 250 0.0 0.0 0.00 0.00 0.00 90 1012.1
20260502090131 57 250 0.0 0.0 0.00 0.00 0.00 90 1012.1
20260502070050 60 250 0.0 1.0 0.00 0.00 0.00 86 1012.9
20260502064633 60 250 0.0 0.0 0.00 0.00 0.00 85 1012.9
20260502063037 61 250 0.0 1.0 0.00 0.00 0.00 84 1012.9
20260502061634 62 250 0.0 2.0 0.00 0.00 0.00 83 1012.8
20260502060049 62 245 1.0 4.0 0.00 0.00 0.00 83 1012.8
20260502054505 62 256 0.0 2.0 0.00 0.00 0.00 82 1012.8
20260502053043 62 242 0.0 3.0 0.00 0.00 0.00 82 1012.8
20260502051503 63 256 0.0 0.0 0.00 0.00 0.00 81 1012.8
20260502050048 63 257 0.0 2.0 0.00 0.00 0.00 80 1012.7
20260502044509 64 242 0.0 2.0 0.00 0.00 0.00 79 1012.7
20260502043058 64 262 0.0 3.0 0.00 0.00 0.00 78 1012.3
20260502041504 65 131 0.0 7.0 0.00 0.00 0.00 76 1012.1
20260502040056 65 315 3.0 8.0 0.00 0.00 0.00 76 1011.8
20260502034503 66 253 3.0 11.0 0.00 0.00 0.00 74 1011.5
20260502033043 66 304 2.0 8.0 0.00 0.00 0.00 73 1011.4
20260502031504 67 284 3.0 9.0 0.00 0.00 0.00 72 1011.2
20260502030055 67 287 2.0 9.0 0.00 0.00 0.00 70 1011.1
20260502024514 68 303 2.0 7.0 0.00 0.00 0.00 69 1010.9
20260502023112 69 283 4.0 8.0 0.00 0.00 0.00 67 1010.7
20260502021534 70 307 4.0 11.0 0.00 0.00 0.00 64 1010.4
20260502020002 71 274 2.0 7.0 0.00 0.00 0.00 60 1010.3
20260502014555 73 304 2.0 5.0 0.00 0.00 0.00 58 1010.1
20260502013005 74 240 2.0 6.0 0.00 0.00 0.00 57 1009.8
20260502011558 75 248 3.0 8.0 0.00 0.00 0.00 56 1009.8
20260502010034 76 293 5.0 12.0 0.00 0.00 0.00 54 1009.7
20260502004624 77 276 4.0 11.0 0.00 0.00 0.00 51 1009.8
20260502003129 78 236 4.0 14.0 0.00 0.00 0.00 49 1009.7
20260502001508 79 218 4.0 11.0 0.00 0.00 0.00 49 1009.6
20260502000122 79 198 3.0 12.0 0.00 0.00 0.00 48 1009.6
20260501234545 80 195 2.0 10.0 0.00 0.00 0.00 48 1009.5
20260501233124 81 300 5.0 13.0 0.00 0.00 0.00 47 1009.5
20260501231540 81 319 4.0 11.0 0.00 0.00 0.00 46 1009.4
20260501230008 81 30 2.0 11.0 0.00 0.00 0.00 45 1009.7
20260501224554 80 288 5.0 12.0 0.00 0.00 0.00 46 1009.9
20260501223130 80 236 3.0 11.0 0.00 0.00 0.00 46 1010.3
20260501221550 80 231 3.0 14.0 0.00 0.00 0.00 47 1010.5
20260501220128 80 250 5.0 12.0 0.00 0.00 0.00 48 1010.7
20260501214544 80 294 3.0 14.0 0.00 0.00 0.00 51 1010.8
20260501213133 79 314 4.0 11.0 0.00 0.00 0.00 52 1011.0
20260501211554 77 50 2.0 11.0 0.00 0.00 0.00 56 1011.2
20260501210001 77 271 2.0 8.0 0.00 0.00 0.00 55 1011.5
20260501204555 76 221 2.0 8.0 0.00 0.00 0.00 58 1011.5
20260501203006 74 301 1.0 9.0 0.00 0.00 0.00 59 1011.6
20260501200005 70 274 3.0 7.0 0.00 0.00 0.00 66 1012.2
20260501194603 70 228 4.0 10.0 0.00 0.00 0.00 67 1012.3
20260501193026 69 314 3.0 9.0 0.00 0.00 0.00 67 1012.5
20260501191621 68 217 3.0 7.0 0.00 0.00 0.00 70 1012.8
20260501190043 67 268 3.0 9.0 0.00 0.00 0.00 73 1013.1